T08 ATLAS-MLO, Mauna Loa.  Observers L. Denneau, R. Siverd, J. Tonry, H.
    Weiland.  Measurers L. Denneau, N. Erasmus, A. Fitzsimmons, A. Lawrence,
    J. Robinson, R. Siverd, J. Tonry, H. Weiland.  0.5-m Reflector + CCD.
W62 Comet Hunter Observatory2, New Ringgold.  Observer J. Maikner.  0.30-m
    f/3.8 Riccardi-Honders + CCD.
Z21 Tenerife-LCO Aqawan A #1.  Observer A. Hale.  0.35-m f/3 Cassegrain + CCD.
Orbital elements:
    P/2001 Q6 (NEAT)                                                            
Epoch 2023 Sept. 13.0 TT = JDT 2460200.5                                        
T 2024 Feb. 26.25814 TT                                 Rudenko                 
q   1.4056723            (2000.0)            P               Q                  
n   0.04381748     Peri.   42.92969     +0.53758182     -0.78161720             
a   7.9684001      Node    22.18464     +0.34257322     -0.14036953             
e   0.8235942      Incl.   56.91066     +0.77048645     +0.60775895             
P  22.5                                                                         
>From 438 observations 2001 Aug. 18-2024 Jan. 20, mean residual 0".6.            
                                                                                
Ephemeris:
Date    TT    R. A. (2000) Decl.     Delta      r    Elong.  Phase   m1    m2
2023 12 29    23 11 41.5 -05 28 44   1.6433  1.6024    70.1    35.2  16.6
...
2024 01 13    23 22 01.4 +03 24 56   1.7316  1.5199    60.9    34.4  16.5
...
2024 01 21    23 29 19.2 +08 04 14   1.7745  1.4838    56.7    33.7  16.5
...
2024 01 27    23 35 31.5 +11 32 18   1.8040  1.4607    54.0    33.0  16.4
2024 01 28    23 36 37.2 +12 06 55   1.8086  1.4572    53.5    32.9  16.4
2024 01 29    23 37 43.9 +12 41 30   1.8132  1.4539    53.1    32.8  16.4
...
2024 02 04    23 44 46.1 +16 08 56   1.8391  1.4359    50.8    32.1  16.4
...
2024 02 12    23 55 10.6 +20 45 53   1.8693  1.4182    48.3    31.3  16.4
...
2024 02 27    00 18 16.6 +29 29 12   1.9126  1.4058    45.3    30.1  16.4
M. P. C. Staff               (C) Copyright 2024 MPC           M.P.E.C. 2024-B144
    
    
More information about the Iaude
mailing list